Wind_Speed
33 37 41 47 52 56 60 65 67 69 72 74 74 70 63 56 52 52 55 57 59 61 62 63 63 63 62 60 59 58 57 56 55 54 53 51 49 47 46 44 43 40 38 37
35 39 42 48 54 59 63 66 68 70 72 75 73 68 61 55 53 54 57 61 63 64 65 65 63 59 57 54 53 52 52 51 51 50 48 47 47 47 46 45 43 41 39 37
37 41 44 50 56 61 65 67 69 70 73 75 73 67 61 55 54 56 60 63 66 66 64 60 58 56 54 54 54 54 53 52 51 50 47 45 42 42 43 44 43 41 39 37
39 43 48 53 58 63 66 67 69 72 74 75 72 65 58 54 55 57 62 65 65 62 58 55 54 53 54 55 56 57 57 56 54 51 48 45 41 39 39 40 41 41 39 38
41 45 50 56 61 66 68 67 70 72 74 73 69 62 56 55 56 60 63 64 61 57 54 53 53 53 54 56 57 59 59 58 55 52 48 44 39 36 34 35 37 40 40 39
42 48 54 58 63 67 68 68 71 72 73 72 67 61 57 56 58 61 62 59 55 52 51 51 52 54 56 57 58 59 59 58 56 53 49 45 40 35 31 30 30 33 39 41
44 50 56 61 66 68 67 69 70 71 72 70 63 58 57 57 59 61 59 55 52 50 51 52 54 56 58 59 60 61 61 59 57 53 50 46 43 37 32 28 26 27 31 38
47 53 58 63 66 67 67 68 69 71 71 66 60 56 56 58 59 58 54 51 49 49 51 53 55 58 60 61 62 63 62 60 56 53 50 47 44 40 35 30 27 24 25 29
48 53 59 64 67 67 67 67 68 70 69 63 57 54 57 58 58 55 51 48 48 49 52 55 57 59 61 62 63 64 63 60 56 53 51 48 45 42 38 33 29 25 23 23
49 56 61 65 68 67 66 66 68 69 66 60 55 55 57 58 55 51 48 46 47 50 53 55 57 59 62 64 65 64 62 60 58 55 52 50 47 43 39 35 30 27 24 22
50 57 62 66 67 67 65 66 68 67 63 57 55 56 57 56 53 48 45 45 47 51 53 55 57 60 63 65 65 62 61 60 60 59 57 53 49 45 40 35 32 28 24 22
51 58 63 66 67 66 64 65 66 66 61 57 55 56 56 54 50 45 43 45 48 51 53 54 56 60 64 65 64 61 59 60 62 62 61 57 52 45 41 36 31 28 26 23
52 59 64 67 66 64 63 64 65 64 59 56 56 56 55 51 47 43 43 46 48 51 52 52 55 60 64 66 63 60 59 61 63 65 64 61 55 47 40 34 31 27 25 24
54 60 64 66 64 62 61 63 64 62 58 55 56 55 53 49 44 42 43 45 48 49 50 51 55 60 64 66 63 59 58 60 62 64 66 64 59 50 42 34 28 25 22 21
55 60 63 64 62 60 60 62 63 60 57 55 55 54 51 46 42 40 42 45 47 48 48 50 54 59 64 65 63 60 58 59 60 62 66 69 66 58 46 36 29 23 20 18
55 59 62 62 60 59 60 61 61 58 55 54 54 53 49 44 40 40 42 45 45 46 47 49 53 58 62 64 63 60 58 59 61 62 64 68 70 66 54 42 32 24 19 16
55 58 60 60 58 58 59 61 59 56 54 53 53 51 47 42 39 40 43 45 45 46 47 49 52 57 60 64 63 61 60 60 62 62 63 65 68 69 63 51 39 29 23 17
54 57 59 58 57 57 58 59 57 55 52 51 51 49 44 39 37 38 41 43 45 46 47 48 51 54 59 61 62 62 61 60 60 60 61 62 64 67 68 62 51 40 30 24
55 57 58 56 56 56 57 57 55 53 50 50 49 47 42 37 35 36 39 41 43 44 45 46 49 52 56 58 61 62 61 59 57 58 59 60 61 63 65 65 63 56 46 36
56 57 57 55 55 55 56 56 54 51 49 48 48 45 40 35 34 35 38 41 43 44 45 45 47 50 53 56 59 61 61 60 57 56 57 59 60 60 61 62 62 61 59 54
56 57 55 54 54 54 55 54 52 49 47 46 46 43 38 33 32 34 37 40 42 43 44 44 45 47 51 54 56 58 59 59 58 57 57 58 59 59 59 58 58 58 58 57
55 55 54 53 52 53 53 53 50 47 45 45 44 41 36 31 30 32 34 37 39 41 43 43 43 45 49 52 53 54 56 57 58 58 58 58 59 59 58 57 56 55 55 54
54 54 52 51 51 51 52 50 48 46 44 43 42 39 35 30 29 30 33 35 37 39 41 42 42 43 46 49 50 51 52 54 56 58 58 59 59 60 60 59 58 56 55 53
53 52 50 50 50 50 50 48 46 43 41 41 40 38 34 29 27 27 30 32 34 37 40 41 41 41 42 45 47 48 49 51 53 55 57 58 59 60 60 60 60 59 58 56
52 50 49 48 48 48 48 46 44 41 40 39 39 37 33 28 25 26 27 30 32 35 38 39 40 39 39 41 44 45 47 48 50 52 54 55 57 58 59 59 60 60 60 59
50 48 46 46 46 47 46 44 42 39 38 38 38 36 33 28 24 24 25 27 29 32 35 37 38 38 37 38 40 42 44 45 46 48 50 52 54 55 57 58 58 59 59 59
48 46 45 44 45 45 44 42 40 37 36 36 36 35 32 28 24 23 24 25 27 29 32 34 36 36 36 36 36 38 40 41 43 45 47 48 50 51 53 55 56 57 57 58
Wind_Direction
327 329 333 334 332 332 332 332 330 330 331 331 333 334 333 331 329 331 333 333 332 331 330 329 327 325 324 322 320 318 315 311 307 302 297 292 288 284 281 280 278 277 276 275
327 329 333 334 334 335 334 333 331 332 332 333 335 335 334 332 330 332 333 332 332 332 331 331 332 334 335 335 334 332 329 325 320 314 306 297 289 283 278 275 274 273 272 270
328 331 335 336 336 336 335 334 333 334 333 335 336 336 336 333 332 333 333 332 333 333 334 337 339 341 342 342 342 341 339 335 331 326 320 310 298 286 277 271 269 267 266 265
330 333 338 337 337 337 336 335 334 334 335 337 337 338 337 334 334 334 333 333 334 336 339 342 344 345 346 346 346 346 345 343 340 335 328 322 314 301 286 273 265 260 259 258
332 335 336 338 338 337 336 335 335 335 336 337 338 339 338 337 337 335 334 335 337 341 344 346 347 348 347 347 346 346 345 344 342 340 336 331 324 314 302 288 273 260 254 251
333 335 337 338 338 337 335 335 336 336 337 338 340 341 341 340 338 337 336 338 341 344 347 349 349 349 349 347 346 346 345 344 343 342 341 338 334 327 316 303 288 272 257 250
334 336 338 339 338 336 335 336 336 337 338 340 341 342 341 340 339 338 339 341 344 347 349 350 351 351 350 349 348 347 346 345 344 344 343 341 339 335 327 317 303 287 269 255
334 337 338 338 336 336 335 336 336 338 340 342 343 343 342 340 339 339 341 344 347 349 350 351 351 351 350 350 349 348 347 346 346 344 343 343 341 338 333 326 316 303 285 267
333 335 336 337 336 336 335 336 337 338 341 343 343 343 342 341 340 341 344 346 349 351 351 352 351 351 351 351 350 350 349 349 348 347 344 342 340 338 335 329 321 313 300 282
331 334 336 336 336 335 335 336 337 340 342 344 344 344 343 342 342 344 346 349 351 352 353 352 352 352 352 352 352 352 353 353 352 351 348 343 339 336 333 329 323 317 309 298
330 333 334 335 335 335 335 336 338 341 343 344 345 345 344 343 344 346 349 351 353 353 354 354 354 354 354 354 355 356 357 357 357 355 351 347 342 337 332 328 322 316 311 305
329 331 333 334 335 335 335 336 339 342 344 345 345 345 345 345 347 349 352 353 354 354 355 356 356 357 357 356 357 358 359 360 359 358 355 350 346 340 334 328 323 316 311 306
328 330 332 333 333 334 335 337 340 343 345 346 346 346 346 347 349 352 354 354 354 355 356 357 358 359 359 359 359 360 360 0 1 0 358 355 350 345 338 330 323 316 308 303
327 329 331 332 333 333 335 337 341 344 345 346 346 347 348 349 351 354 355 355 355 356 357 358 360 1 1 1 1 1 1 1 2 3 3 1 358 353 346 338 328 318 309 300
326 329 331 331 332 333 335 338 342 345 346 346 347 348 349 351 354 355 356 356 356 357 358 359 1 2 2 3 2 2 2 3 4 5 7 8 6 2 357 350 342 330 318 305
328 330 331 331 332 333 335 339 343 345 346 346 348 349 350 353 355 356 357 357 358 358 359 0 1 2 3 4 4 4 4 5 6 6 8 10 11 10 8 4 358 351 340 326
329 332 332 332 332 333 336 341 344 345 346 347 349 350 352 354 356 357 357 358 358 359 0 1 2 2 4 5 6 6 8 9 9 8 9 11 14 16 17 16 13 10 5 358
332 333 334 333 333 334 337 341 344 345 346 347 349 351 353 355 357 358 359 359 359 0 1 2 1 3 6 7 7 10 12 12 11 11 13 15 17 20 23 25 25 24 22 18
333 334 334 333 333 334 338 341 344 345 345 347 350 351 353 355 357 359 -0 1 1 2 2 2 2 5 7 8 10 14 15 15 13 13 16 19 21 22 26 29 33 35 35 34
332 333 333 333 333 335 338 341 343 345 345 347 350 352 353 354 356 359 0 2 2 3 4 3 5 8 9 11 14 16 18 18 17 17 19 21 23 24 27 30 34 37 41 43
331 332 332 332 332 334 337 341 343 344 345 347 350 351 352 353 356 358 1 2 3 3 4 5 8 10 12 14 16 18 20 21 21 22 23 25 25 26 28 30 33 36 39 42
329 330 330 330 331 334 337 341 343 343 344 347 349 350 350 351 354 358 1 3 3 4 6 8 10 13 15 17 18 19 21 23 25 26 27 28 28 29 30 31 33 34 36 39
328 329 328 328 330 333 337 340 342 342 344 347 349 349 349 350 353 357 360 2 3 4 7 10 13 15 18 19 20 20 22 25 26 27 29 31 31 31 32 33 34 35 36 37
326 326 326 327 329 332 336 339 341 341 343 347 348 349 348 348 350 354 357 360 2 5 8 11 14 16 19 21 21 22 23 25 27 28 30 32 33 34 34 35 36 37 37 38
324 324 323 325 328 332 335 338 340 340 342 345 347 348 347 345 347 350 354 357 1 5 8 11 14 17 18 20 22 23 24 26 28 29 29 31 33 35 35 36 36 37 38 39
322 321 321 324 327 331 334 337 338 338 340 344 346 347 346 343 343 346 349 354 359 4 7 10 14 16 17 19 22 23 25 26 28 29 29 31 33 35 36 36 37 37 38 39
319 318 319 322 326 329 333 336 336 336 339 343 345 346 345 342 339 341 344 349 356 2 6 9 12 15 17 18 20 22 24 25 27 28 29 29 32 34 36 37 37 38 38 38
Height
5808 5802 5796 5789 5779 5768 5756 5743 5730 5717 5702 5687 5672 5656 5642 5628 5617 5607 5596 5585 5572 5560 5548 5536 5523 5511 5498 5486 5475 5464 5454 5445 5437 5430 5424 5420 5417 5414 5412 5410 5409 5408 5407 5406
5804 5798 5791 5783 5772 5760 5748 5735 5722 5708 5694 5678 5662 5646 5632 5620 5610 5601 5589 5577 5564 5551 5538 5524 5511 5499 5487 5475 5464 5452 5441 5431 5421 5412 5405 5400 5397 5394 5393 5392 5392 5392 5392 5392
5797 5791 5785 5776 5764 5752 5740 5726 5713 5700 5687 5669 5654 5639 5625 5613 5603 5592 5581 5568 5555 5541 5527 5514 5501 5490 5478 5467 5456 5445 5433 5421 5410 5400 5391 5383 5378 5375 5373 5373 5374 5374 5376 5377
5792 5786 5777 5772 5757 5744 5731 5718 5704 5690 5676 5660 5644 5630 5617 5606 5596 5585 5573 5560 5546 5532 5519 5507 5495 5484 5473 5462 5450 5438 5426 5414 5402 5390 5380 5371 5363 5358 5355 5355 5355 5357 5359 5361
5786 5778 5772 5762 5749 5736 5724 5712 5698 5683 5669 5654 5638 5625 5613 5601 5589 5577 5565 5551 5538 5525 5514 5502 5491 5480 5469 5457 5445 5433 5420 5408 5395 5383 5371 5361 5353 5346 5342 5339 5339 5340 5342 5345
5780 5772 5764 5756 5742 5728 5716 5704 5690 5675 5661 5646 5631 5619 5608 5594 5583 5570 5557 5544 5532 5520 5509 5499 5488 5476 5465 5453 5440 5428 5415 5401 5388 5376 5364 5354 5345 5337 5331 5327 5325 5324 5326 5329
5775 5766 5758 5747 5734 5721 5709 5698 5681 5668 5653 5638 5623 5610 5599 5587 5575 5563 5550 5539 5527 5517 5506 5496 5484 5473 5461 5448 5435 5422 5408 5394 5381 5369 5358 5348 5338 5330 5323 5318 5314 5312 5312 5313
5769 5760 5753 5741 5728 5716 5703 5688 5675 5662 5647 5631 5617 5605 5594 5582 5570 5558 5546 5535 5524 5514 5503 5493 5481 5470 5457 5444 5430 5416 5402 5388 5375 5363 5352 5342 5332 5323 5316 5310 5306 5302 5300 5299
5766 5759 5747 5734 5722 5709 5696 5683 5670 5656 5641 5627 5614 5602 5591 5579 5566 5554 5543 5532 5522 5512 5501 5490 5478 5466 5454 5440 5426 5412 5397 5383 5370 5357 5346 5336 5327 5318 5310 5303 5298 5293 5290 5288
5759 5750 5740 5728 5716 5703 5690 5677 5664 5650 5635 5622 5610 5598 5586 5574 5562 5550 5540 5530 5521 5511 5500 5488 5476 5463 5450 5437 5422 5407 5393 5379 5365 5353 5342 5330 5320 5311 5303 5296 5290 5285 5281 5278
5753 5744 5734 5722 5710 5697 5684 5671 5658 5644 5630 5617 5605 5594 5582 5570 5558 5548 5538 5529 5519 5509 5498 5486 5474 5461 5448 5434 5419 5405 5391 5377 5363 5350 5337 5325 5313 5302 5294 5287 5280 5276 5272 5269
5748 5739 5729 5717 5704 5691 5678 5666 5653 5640 5625 5613 5601 5590 5578 5567 5555 5545 5536 5527 5518 5507 5496 5485 5473 5460 5446 5431 5417 5403 5389 5376 5362 5348 5333 5319 5306 5295 5284 5277 5271 5266 5262 5260
5741 5732 5722 5710 5698 5685 5673 5661 5648 5634 5621 5609 5598 5587 5575 5564 5553 5544 5535 5526 5516 5506 5495 5484 5472 5459 5445 5430 5416 5401 5388 5374 5360 5345 5330 5314 5299 5287 5277 5268 5261 5257 5253 5251
5735 5726 5716 5704 5692 5679 5667 5655 5643 5629 5617 5605 5595 5583 5572 5561 5551 5542 5534 5525 5515 5505 5494 5483 5472 5459 5445 5430 5416 5402 5388 5375 5361 5346 5330 5312 5295 5280 5269 5260 5253 5247 5244 5242
5729 5720 5710 5698 5686 5674 5662 5650 5638 5625 5613 5602 5591 5580 5569 5559 5550 5542 5534 5525 5515 5505 5494 5484 5472 5460 5446 5431 5417 5403 5389 5376 5362 5347 5330 5312 5294 5276 5263 5252 5245 5239 5236 5234
5723 5713 5703 5691 5680 5668 5657 5645 5633 5621 5609 5599 5589 5578 5567 5557 5549 5541 5533 5524 5515 5505 5495 5484 5473 5461 5448 5434 5419 5405 5391 5376 5362 5347 5332 5315 5297 5278 5261 5249 5240 5234 5230 5228
5716 5706 5696 5685 5674 5663 5652 5641 5629 5617 5607 5597 5586 5576 5565 5556 5547 5539 5531 5523 5514 5504 5494 5484 5473 5462 5450 5435 5421 5407 5392 5378 5364 5350 5336 5321 5304 5286 5267 5251 5241 5233 5229 5225
5709 5699 5689 5678 5668 5657 5647 5636 5624 5614 5604 5594 5584 5574 5564 5555 5548 5540 5532 5523 5513 5504 5494 5485 5475 5464 5452 5439 5426 5410 5394 5381 5368 5356 5343 5328 5312 5295 5278 5262 5248 5238 5231 5227
5701 5691 5681 5671 5661 5652 5642 5631 5620 5610 5601 5591 5582 5572 5563 5555 5548 5541 5534 5525 5516 5507 5498 5488 5478 5467 5455 5443 5429 5414 5399 5387 5375 5364 5351 5336 5322 5307 5293 5278 5263 5250 5240 5233
5693 5684 5674 5665 5656 5647 5637 5627 5616 5607 5598 5589 5579 5570 5561 5554 5547 5540 5533 5526 5517 5509 5499 5491 5480 5470 5460 5447 5433 5420 5407 5394 5383 5371 5358 5345 5331 5318 5305 5293 5280 5268 5257 5248
5686 5677 5668 5659 5650 5641 5632 5623 5613 5604 5595 5587 5578 5569 5561 5554 5547 5541 5533 5526 5518 5510 5501 5492 5483 5473 5463 5450 5438 5427 5415 5403 5392 5379 5366 5354 5341 5329 5318 5306 5295 5285 5274 5265
5679 5670 5661 5653 5645 5636 5628 5618 5609 5601 5592 5584 5576 5567 5560 5554 5548 5542 5535 5528 5521 5513 5504 5495 5486 5476 5466 5455 5444 5434 5423 5412 5401 5389 5376 5364 5352 5341 5330 5319 5309 5299 5289 5280
5671 5663 5655 5647 5639 5632 5623 5614 5606 5598 5590 5582 5574 5566 5559 5552 5546 5541 5535 5529 5522 5515 5506 5497 5488 5479 5470 5460 5451 5441 5432 5421 5410 5399 5387 5375 5363 5353 5342 5331 5321 5311 5302 5294
5664 5656 5649 5641 5634 5627 5619 5611 5602 5595 5587 5580 5572 5564 5558 5552 5547 5542 5536 5530 5524 5516 5508 5500 5491 5483 5474 5466 5457 5448 5439 5429 5419 5409 5398 5386 5375 5365 5355 5344 5334 5324 5315 5307
5657 5649 5642 5636 5629 5622 5614 5606 5599 5591 5584 5577 5570 5563 5556 5550 5546 5541 5536 5531 5525 5518 5510 5502 5494 5486 5479 5471 5463 5455 5446 5437 5427 5418 5408 5398 5387 5377 5367 5357 5348 5338 5329 5321
5649 5642 5636 5629 5623 5617 5609 5602 5595 5588 5582 5575 5568 5561 5555 5549 5545 5541 5536 5531 5526 5520 5513 5506 5498 5490 5483 5475 5468 5460 5452 5444 5436 5427 5418 5409 5398 5389 5379 5370 5361 5352 5343 5335
5640 5634 5628 5623 5617 5611 5604 5597 5591 5585 5579 5572 5566 5560 5553 5548 5544 5540 5536 5531 5526 5521 5515 5508 5501 5494 5487 5479 5472 5465 5458 5450 5443 5435 5427 5418 5409 5400 5391 5382 5374 5365 5357 5349